Погода в Архангеле

Россия / Владимирская область     55°27′03″N   41°32′53″E
темп.,
°C
ветер,
м/с
пор.,
м/с
влажн.,
%
обл.,
%
осадки,
мм/ч
давл.,
гПа
погр.,
м
18 января, вт
вт1800:00−3ююз51294100 0.6 990606
03:00−2ююз41096100 0.9 991480
06:00−3ю3896100 0.3 992295
09:00−4юв1298100 0.4 99555
12:00−2с1195100 0.4 998194
15:00−1с3697100 0.7 1001427
18:00−6с4109499 0.3 1006355
21:00−10ссз4129367 0.3 1009316
19 января, ср
ср1900:00−13ссз399664 0.0 1013204
03:00−15сз389863 0.0 1015126
06:00−17сз259964 0.0 101679
09:00−19сз2310054 0.0 101844
12:00−12зсз239140 0.0 1018150
15:00−11зюз249416 0.0 1018119
18:00−16юз249977 0.0 101847
21:00−15ююз399665 0.0 1018147
20 января, чт
чт2000:00
03:00−13ююз41485100 0.0 1016293
06:00−11ююз5158481 0.0 1015331
09:00
12:00−10ююз6168186 0.0 1015419
15:00−9ююз6168577 0.0 1014510
18:00−11ю6169061 0.0 1015447
21:00−12ю6179285 0.0 1014443
21 января, пт
пт2100:00−12ю6179188 0.0 1014495
03:00−11ю61791100 0.0 1015490
06:00−11ю61693100 0.0 1014459
09:00−10ююв61692100 0.0 1014496
12:00−8ююв61691100 0.0 1013568
15:00−6ююв61593100 0.4 1012746
18:00−5ююв61394100 0.5 1012745
21:00−5юв61394100 1.3 1010734
22 января, сб
сб2200:00−5юв61495100 0.8 1010775
03:00−3ююв51294100 2.1 1011659
06:00−6ю389357 0.1 1014218
09:00−11ююв289988 0.1 1016123
12:00−6ююв389590 0.0 1018294
15:00−4ююв379099 0.1 1019554
18:00−4юв2493100 0.1 1020126
21:00−5в2598100 0.1 1021135